timestamp,surface_pressure_avg,surface_temp_avg,battery_voltage,lat,long
2022-02-24 00:09:00+00:00,210.0564,1.4,12.25,47.84626,-54.09684
2022-02-24 00:19:00+00:00,218.8881,1.39,12.25,47.84626,-54.09684
2022-02-24 00:29:00+00:00,220.2814,1.39,12.25,47.84626,-54.09684
2022-02-24 00:39:00+00:00,219.1065,1.4,12.25,47.84626,-54.09684
2022-02-24 00:49:00+00:00,223.5714,1.4,12.25,47.84626,-54.09684
2022-02-24 00:59:00+00:00,227.5031,1.4,12.25,47.84626,-54.09684
2022-02-24 01:09:00+00:00,230.9798,1.4,12.25,47.84626,-54.09684
2022-02-24 01:19:00+00:00,233.7081,1.4,12.25,47.84626,-54.09684
2022-02-24 01:29:00+00:00,234.8814,1.4,12.25,47.84626,-54.09684
2022-02-24 01:39:00+00:00,240.5231,1.4,12.25,47.84626,-54.09684
2022-02-24 01:49:00+00:00,244.7397,1.4,12.25,47.84626,-54.09684
2022-02-24 01:59:00+00:00,243.5797,1.4,12.25,47.84626,-54.09684
2022-02-24 02:09:00+00:00,249.2764,1.4,12.25,47.84626,-54.09684
2022-02-24 02:19:01+00:00,257.4281,1.4,12.25,47.84626,-54.09684
2022-02-24 02:29:01+00:00,262.4531,1.4,12.25,47.84626,-54.09684
2022-02-24 02:39:01+00:00,263.343,1.4,12.25,47.84626,-54.09684
2022-02-24 02:49:01+00:00,272.0748,1.4,12.25,47.84626,-54.09684
2022-02-24 02:59:01+00:00,283.033,1.4,12.25,47.84626,-54.09684
2022-02-24 03:09:01+00:00,291.4431,1.4,12.25,47.84626,-54.09684
2022-02-24 03:19:00+00:00,293.628,1.4,12.25,47.84626,-54.09684
2022-02-24 03:29:00+00:00,299.928,1.4,12.25,47.84626,-54.09684
2022-02-24 03:39:00+00:00,308.4981,1.4,12.25,47.84626,-54.09684
2022-02-24 03:49:00+00:00,308.6763,1.4,12.25,47.84626,-54.09684
2022-02-24 03:59:00+00:00,314.2497,1.4,12.25,47.84626,-54.09684
2022-02-24 04:09:00+00:00,325.9913,1.4,12.25,47.84626,-54.09684
2022-02-24 04:19:00+00:00,329.0813,1.4,12.25,47.84626,-54.09684
2022-02-24 04:29:00+00:00,323.723,1.4,12.25,47.84626,-54.09684
2022-02-24 04:39:00+00:00,326.0713,1.4,12.25,47.84626,-54.09684
2022-02-24 04:49:00+00:00,329.8362,1.4,12.25,47.84626,-54.09684
2022-02-24 04:59:00+00:00,331.5413,1.4,12.25,47.84626,-54.09684
2022-02-24 05:09:00+00:00,330.6946,1.4,12.25,47.84626,-54.09684
2022-02-24 05:19:01+00:00,339.2662,1.4,12.25,47.84626,-54.09684
2022-02-24 05:29:01+00:00,343.8663,1.4,12.25,47.84626,-54.09684
2022-02-24 05:39:01+00:00,345.7596,1.4,12.25,47.84626,-54.09684
2022-02-24 05:49:01+00:00,345.5479,1.4,12.25,47.84626,-54.09684
2022-02-24 05:59:01+00:00,341.8079,1.4,12.25,47.84626,-54.09684
2022-02-24 06:09:01+00:00,340.9013,1.4,12.25,47.84626,-54.09684
2022-02-24 06:19:00+00:00,339.3947,1.4,12.25,47.84626,-54.09684
2022-02-24 06:29:00+00:00,337.6514,1.4,12.25,47.84626,-54.09684
2022-02-24 06:39:00+00:00,334.3396,1.4,12.25,47.84626,-54.09684
2022-02-24 06:49:00+00:00,334.4397,1.4,12.25,47.84626,-54.09684
2022-02-24 06:59:00+00:00,334.903,1.4,12.25,47.84626,-54.09684
2022-02-24 07:09:00+00:00,333.653,1.4,12.25,47.84626,-54.09684
2022-02-24 07:19:00+00:00,329.543,1.4,12.25,47.84626,-54.09684
2022-02-24 07:29:00+00:00,322.0663,1.4,12.25,47.84626,-54.09684
2022-02-24 07:39:00+00:00,316.2964,1.4,12.25,47.84626,-54.09684
2022-02-24 07:49:00+00:00,311.6097,1.4,12.25,47.84626,-54.09684
2022-02-24 07:59:00+00:00,302.9113,1.4,12.25,47.84626,-54.09684
2022-02-24 08:09:00+00:00,298.3463,1.4,12.25,47.84626,-54.09684
2022-02-24 08:19:00+00:00,287.883,1.4,12.25,47.84626,-54.09684
2022-02-24 08:29:00+00:00,276.5064,1.4,12.25,47.84626,-54.09684
2022-02-24 08:39:00+00:00,270.7981,1.4,12.25,47.84626,-54.09684
2022-02-24 08:49:00+00:00,267.813,1.4,12.25,47.84626,-54.09684
2022-02-24 08:59:00+00:00,257.923,1.4,12.25,47.84626,-54.09684
2022-02-24 09:09:00+00:00,256.2264,1.4,12.25,47.84626,-54.09684
2022-02-24 09:19:00+00:00,255.2164,1.4,12.25,47.84626,-54.09684
2022-02-24 09:29:00+00:00,243.0247,1.4,12.25,47.84626,-54.09684
2022-02-24 09:39:00+00:00,228.2547,1.4,12.25,47.84626,-54.09684
2022-02-24 09:49:00+00:00,228.2597,1.4,12.25,47.84626,-54.09684
2022-02-24 09:59:00+00:00,233.2448,1.4,12.25,47.84626,-54.09684
2022-02-24 10:09:00+00:00,228.4681,1.4,12.25,47.84626,-54.09684
2022-02-24 10:19:00+00:00,215.9131,1.4,12.25,47.84626,-54.09684
2022-02-24 10:29:00+00:00,208.5798,1.4,12.25,47.84626,-54.09684
2022-02-24 10:39:00+00:00,219.1048,1.4,12.25,47.84626,-54.09684
2022-02-24 10:49:00+00:00,219.0147,1.4,12.25,47.84626,-54.09684
2022-02-24 10:59:00+00:00,215.3315,1.4,12.25,47.84626,-54.09684
2022-02-24 11:09:00+00:00,219.8348,1.4,12.25,47.84626,-54.09684
2022-02-24 11:19:00+00:00,224.3264,1.4,12.25,47.84626,-54.09684
2022-02-24 11:29:00+00:00,216.0981,1.4,12.25,47.84626,-54.09684
2022-02-24 11:39:00+00:00,206.0081,1.4,12.25,47.84626,-54.09684
2022-02-24 11:49:00+00:00,211.8398,1.4,12.25,47.84626,-54.09684
2022-02-24 11:59:00+00:00,218.0714,1.4,12.25,47.84626,-54.09684
2022-02-24 12:09:00+00:00,208.6364,1.4,12.25,47.84626,-54.09684
2022-02-24 12:19:00+00:00,202.9431,1.4,12.25,47.84626,-54.09684
2022-02-24 12:29:00+00:00,212.1614,1.4,12.25,47.84626,-54.09684
2022-02-24 12:39:00+00:00,223.0731,1.4,12.25,47.84626,-54.09684
2022-02-24 12:49:00+00:00,219.8114,1.4,12.25,47.84626,-54.09684
2022-02-24 12:59:00+00:00,218.7097,1.4,12.25,47.84626,-54.09684
2022-02-24 13:09:00+00:00,226.7731,1.4,12.25,47.84626,-54.09684
2022-02-24 13:19:01+00:00,229.4865,1.4,12.25,47.84626,-54.09684
2022-02-24 13:29:01+00:00,227.2181,1.4,12.25,47.84626,-54.09684
2022-02-24 13:39:01+00:00,230.4831,1.4,12.25,47.84626,-54.09684
2022-02-24 13:49:01+00:00,238.3864,1.4,12.25,47.84626,-54.09684
2022-02-24 13:59:01+00:00,242.9364,1.4,12.25,47.84626,-54.09684
2022-02-24 14:09:01+00:00,246.7381,1.4,12.25,47.84626,-54.09684
2022-02-24 14:19:00+00:00,258.1364,1.4,12.25,47.84626,-54.09684
2022-02-24 14:29:00+00:00,267.1465,1.4,12.25,47.84626,-54.09684
2022-02-24 14:39:00+00:00,275.9031,1.4,12.25,47.84626,-54.09684
2022-02-24 14:49:00+00:00,288.1681,1.39,12.25,47.84626,-54.09684
2022-02-24 14:59:00+00:00,297.4564,1.37,12.25,47.84626,-54.09684
2022-02-24 15:09:00+00:00,293.1297,1.3,12.25,47.84626,-54.09684
2022-02-24 15:19:01+00:00,291.3464,1.35,12.25,47.84626,-54.09684
2022-02-24 15:29:01+00:00,292.9813,1.38,12.25,47.84626,-54.09684
2022-02-24 15:39:01+00:00,293.418,1.38,12.25,47.84626,-54.09684
2022-02-24 15:49:01+00:00,289.9214,1.39,12.25,47.84626,-54.09684
2022-02-24 15:59:01+00:00,294.3131,1.38,12.25,47.84626,-54.09684
2022-02-24 16:09:01+00:00,299.438,1.38,12.25,47.84626,-54.09684
2022-02-24 16:19:01+00:00,302.4231,1.3,12.25,47.84626,-54.09684
2022-02-24 16:29:01+00:00,304.0397,1.3,12.25,47.84626,-54.09684
2022-02-24 16:39:01+00:00,308.9464,1.3,12.25,47.84626,-54.09684
2022-02-24 16:49:01+00:00,314.593,1.3,12.25,47.84626,-54.09684
2022-02-24 16:59:01+00:00,316.7195,1.3,12.25,47.84626,-54.09684
2022-02-24 17:09:01+00:00,319.3496,1.3,12.25,47.84626,-54.09684
2022-02-24 17:19:01+00:00,320.3997,1.33,12.25,47.84626,-54.09684
2022-02-24 17:29:01+00:00,319.6447,1.31,12.25,47.84626,-54.09684
2022-02-24 17:39:01+00:00,317.5997,1.3,12.25,47.84626,-54.09684
2022-02-24 17:49:01+00:00,317.2963,1.34,12.25,47.84626,-54.09684
2022-02-24 17:59:01+00:00,319.2563,1.38,12.25,47.84626,-54.09684
2022-02-24 18:09:01+00:00,312.8796,1.33,12.25,47.84626,-54.09684
2022-02-24 18:19:01+00:00,308.943,1.33,12.25,47.84626,-54.09684
2022-02-24 18:29:01+00:00,309.6147,1.34,12.25,47.84626,-54.09684
2022-02-24 18:39:01+00:00,305.7646,1.33,12.25,47.84626,-54.09684
2022-02-24 18:49:01+00:00,303.8314,1.3,12.25,47.84626,-54.09684
2022-02-24 18:59:01+00:00,300.798,1.31,12.25,47.84626,-54.09684
2022-02-24 19:09:01+00:00,297.4081,1.34,12.25,47.84626,-54.09684
2022-02-24 19:19:00+00:00,290.968,1.3,12.25,47.84626,-54.09684
2022-02-24 19:29:00+00:00,288.7931,1.33,12.25,47.84626,-54.09684
2022-02-24 19:39:00+00:00,289.8047,1.35,12.25,47.84626,-54.09684
2022-02-24 19:49:00+00:00,283.6847,1.3,12.25,47.84626,-54.09684
2022-02-24 19:59:00+00:00,278.0047,1.4,12.25,47.84626,-54.09684
2022-02-24 20:09:00+00:00,276.0947,1.4,12.25,47.84626,-54.09684
2022-02-24 20:19:01+00:00,272.3497,1.3,12.25,47.84626,-54.09684
2022-02-24 20:29:01+00:00,267.8748,1.3,12.25,47.84626,-54.09684
2022-02-24 20:39:01+00:00,263.8864,1.35,12.25,47.84626,-54.09684
2022-02-24 20:49:01+00:00,260.9647,1.39,12.25,47.84626,-54.09684
2022-02-24 20:59:01+00:00,259.5381,1.39,12.25,47.84626,-54.09684
2022-02-24 21:09:01+00:00,257.3114,1.4,12.25,47.84626,-54.09684
2022-02-24 21:19:00+00:00,249.8581,1.33,12.25,47.84626,-54.09684
2022-02-24 21:29:00+00:00,239.5364,1.3,12.25,47.84626,-54.09684
2022-02-24 21:39:00+00:00,237.7547,1.3,12.25,47.84626,-54.09684
2022-02-24 21:49:00+00:00,240.0931,1.3,12.25,47.84626,-54.09684
2022-02-24 21:59:00+00:00,236.7647,1.3,12.25,47.84626,-54.09684
2022-02-24 22:09:00+00:00,231.3765,1.3,12.25,47.84626,-54.09684
2022-02-24 22:19:00+00:00,229.7415,1.3,12.17,47.84626,-54.09684
2022-02-24 22:29:00+00:00,225.6514,1.33,12.17,47.84626,-54.09684
2022-02-24 22:39:00+00:00,218.5548,1.3,12.17,47.84626,-54.09684
2022-02-24 22:49:00+00:00,217.6581,1.3,12.17,47.84626,-54.09684
2022-02-24 22:59:00+00:00,219.8564,1.34,12.17,47.84626,-54.09684
2022-02-24 23:09:00+00:00,216.1831,1.3,12.17,47.84626,-54.09684
2022-02-24 23:19:00+00:00,215.1764,1.3,12.17,47.84626,-54.09684
2022-02-24 23:29:00+00:00,221.1631,1.3,12.17,47.84626,-54.09684
2022-02-24 23:39:00+00:00,228.3464,1.3,12.17,47.84626,-54.09684
2022-02-24 23:49:00+00:00,228.0397,1.3,12.17,47.84626,-54.09684
2022-02-24 23:59:00+00:00,229.8948,1.3,12.17,47.84626,-54.09684
